EW1940 Weather Reports


time (UTC)temp
F
wind
direction
speed
knots
gust
knots
rain 1hr
in
rain 24hr
in
rain mn
in
humidity
%
barometer
mb
20260507234039 48 0.0 1.7 0.00 0.00 0.00 89 1015.9
20260507233018 48 68 0.9 2.6 0.00 0.00 0.00 88 1015.9
20260507232016 48 68 0.9 2.6 0.00 0.00 0.00 88 1016.0
20260507231016 48 0.0 0.9 0.00 0.00 0.00 88 1016.1
20260507230018 48 0.0 0.9 0.00 0.00 0.00 87 1016.0
20260507225119 48 0.0 0.0 0.00 0.00 0.00 87 1016.0
20260507224018 48 0.0 0.0 0.00 0.00 0.00 86 1015.9
20260507223016 48 0.0 1.7 0.00 0.00 0.00 86 1016.0
20260507222016 48 0.0 0.9 0.00 0.00 0.00 86 1016.1
20260507221038 49 0.0 0.0 0.00 0.00 0.00 86 1016.1
20260507220036 49 0.0 0.0 0.00 0.00 0.00 86 1016.2
20260507215016 49 0.0 1.7 0.00 0.00 0.00 86 1016.1
20260507214016 49 90 0.9 2.6 0.00 0.00 0.00 86 1016.2
20260507213016 49 0.0 0.0 0.00 0.00 0.00 85 1016.3
20260507212016 49 0.0 0.0 0.00 0.00 0.00 84 1016.2
20260507211016 49 0.0 0.0 0.00 0.00 0.00 83 1016.3
20260507210018 50 0.0 0.0 0.00 0.00 0.00 83 1016.4
20260507205017 50 0.0 0.0 0.00 0.00 0.00 82 1016.5
20260507204016 51 0.0 0.0 0.00 0.00 0.00 82 1016.4
20260507203016 52 0.0 0.0 0.00 0.00 0.00 80 1016.3
20260507202018 52 0.0 0.0 0.00 0.00 0.00 80 1016.2
20260507201017 53 0.0 0.0 0.00 0.00 0.00 80 1016.1
20260507200016 53 0.0 0.0 0.00 0.00 0.00 80 1015.9
20260507195016 53 0.0 0.0 0.00 0.00 0.00 79 1015.8
20260507194016 54 0.0 0.0 0.00 0.00 0.00 78 1015.7
20260507193016 54 0.0 0.0 0.00 0.00 0.00 77 1015.5
20260507192017 55 135 0.9 1.7 0.00 0.00 0.00 76 1015.5
20260507191017 55 113 0.9 2.6 0.00 0.00 0.00 75 1015.3
20260507190016 56 135 1.7 2.6 0.00 0.00 0.00 74 1015.3
20260507185016 56 90 1.7 3.5 0.00 0.00 0.00 74 1015.2
20260507184017 56 113 1.7 3.5 0.00 0.00 0.00 74 1015.2
20260507183016 57 113 2.6 4.3 0.00 0.00 0.00 73 1015.2
20260507182015 57 113 1.7 6.1 0.00 0.00 0.00 72 1015.2
20260507181016 57 113 2.6 6.1 0.00 0.00 0.00 71 1015.2
20260507180015 58 135 2.6 5.2 0.00 0.00 0.00 70 1015.2
20260507175016 58 135 2.6 5.2 0.00 0.00 0.00 70 1015.2
20260507174018 58 135 3.5 8.7 0.00 0.00 0.00 68 1015.1
20260507173016 59 135 2.6 7.0 0.00 0.00 0.00 67 1015.1
20260507172017 59 135 2.6 6.1 0.00 0.00 0.00 67 1015.2
20260507171015 59 135 2.6 7.0 0.00 0.00 0.00 66 1015.3
20260507170037 59 158 2.6 5.2 0.00 0.00 0.00 66 1015.4
20260507165016 60 158 2.6 6.1 0.00 0.00 0.00 65 1015.4
20260507164038 60 135 1.7 7.0 0.00 0.00 0.00 61 1015.4
20260507163017 61 135 2.6 7.0 0.00 0.00 0.00 61 1015.4
20260507162015 61 135 3.5 7.0 0.00 0.00 0.00 64 1015.3
20260507161017 61 158 3.5 7.8 0.00 0.00 0.00 65 1015.4
20260507160016 61 158 4.3 9.6 0.00 0.00 0.00 65 1015.5
20260507155017 61 180 5.2 9.6 0.00 0.00 0.00 65 1015.4
20260507154037 61 203 4.3 8.7 0.00 0.00 0.00 66 1015.4
20260507153015 61 225 4.3 7.8 0.00 0.00 0.00 65 1015.5
20260507152015 61 203 3.5 7.8 0.00 0.00 0.00 65 1015.6
20260507151015 62 180 2.6 7.8 0.00 0.00 0.00 63 1015.6
20260507150037 62 225 4.3 8.7 0.00 0.00 0.00 66 1015.8
20260507145017 61 180 3.5 7.8 0.00 0.00 0.00 66 1015.7
20260507144041 61 180 4.3 7.8 0.00 0.00 0.00 65 1015.7
20260507143017 61 180 3.5 9.6 0.00 0.00 0.00 64 1015.8
20260507142018 60 180 3.5 7.0 0.00 0.00 0.00 68 1015.8
20260507141017 60 158 3.5 11.3 0.00 0.00 0.00 66 1015.9
20260507140019 61 180 3.5 7.8 0.00 0.00 0.00 66 1016.0
20260507135041 61 180 4.3 9.6 0.00 0.00 0.00 66 1016.0
20260507134017 60 180 3.5 9.6 0.00 0.00 0.00 68 1015.9
20260507133017 59 180 5.2 11.3 0.00 0.00 0.00 71 1015.9
20260507132019 58 203 3.5 7.0 0.00 0.00 0.00 71 1016.0
20260507131017 58 180 3.5 9.6 0.00 0.00 0.00 72 1016.0
20260507130017 58 180 2.6 7.0 0.00 0.00 0.00 71 1016.1
20260507125017 58 180 4.3 8.7 0.00 0.00 0.00 70 1016.1
20260507124017 58 225 5.2 8.7 0.00 0.00 0.00 68 1016.1
20260507123019 59 225 4.3 9.6 0.00 0.00 0.00 67 1016.1
20260507122017 59 203 5.2 9.6 0.00 0.00 0.00 68 1016.1
20260507121017 60 203 5.2 10.4 0.00 0.00 0.00 66 1016.1
20260507120018 61 180 3.5 7.8 0.00 0.00 0.00 65 1016.0
20260507115017 61 158 5.2 10.4 0.00 0.00 0.00 65 1016.0
20260507114039 61 158 4.3 13.0 0.00 0.00 0.00 64 1016.1
20260507113037 62 158 5.2 10.4 0.00 0.00 0.00 63 1016.1
20260507112018 63 180 5.2 11.3 0.00 0.00 0.00 62 1016.1
20260507111017 62 158 3.5 7.8 0.00 0.00 0.00 62 1016.0
20260507110017 62 135 4.3 9.6 0.00 0.00 0.00 62 1016.0
20260507105017 62 158 4.3 7.8 0.00 0.00 0.00 61 1016.0
20260507104017 62 135 5.2 8.7 0.00 0.00 0.00 64 1016.1
20260507103037 61 135 4.3 9.6 0.00 0.00 0.00 61 1016.3
20260507102017 61 135 4.3 7.8 0.00 0.00 0.00 63 1016.3
20260507101017 61 158 3.5 8.7 0.00 0.00 0.00 64 1016.3
20260507100017 61 113 5.2 9.6 0.00 0.00 0.00 64 1016.3
20260507095017 62 135 4.3 12.2 0.00 0.00 0.00 62 1016.2
20260507094017 62 135 5.2 11.3 0.00 0.00 0.00 63 1016.3
20260507093017 61 135 5.2 10.4 0.00 0.00 0.00 64 1016.2
20260507092017 61 135 5.2 9.6 0.00 0.00 0.00 66 1016.2
20260507091018 60 135 5.2 10.4 0.00 0.00 0.00 66 1016.2
20260507090018 60 113 3.5 7.8 0.00 0.00 0.00 68 1016.2
20260507085017 60 135 4.3 7.8 0.00 0.00 0.00 68 1016.2
20260507084017 60 135 5.2 9.6 0.00 0.00 0.00 68 1016.2
20260507083017 59 135 5.2 8.7 0.00 0.00 0.00 70 1016.2
20260507082017 58 135 4.3 7.8 0.00 0.00 0.00 72 1016.2
20260507081017 58 135 3.5 9.6 0.00 0.00 0.00 73 1016.1
20260507080017 58 135 5.2 9.6 0.00 0.00 0.00 73 1016.1
20260507075018 58 135 3.5 7.8 0.00 0.00 0.00 73 1016.1
20260507074037 59 135 4.3 8.7 0.00 0.00 0.00 72 1016.0
20260507073017 58 113 2.6 5.2 0.00 0.00 0.00 74 1016.0
20260507072018 56 135 1.7 7.0 0.00 0.00 0.00 78 1016.0
20260507071017 55 113 2.6 6.1 0.00 0.00 0.00 81 1015.9
20260507070018 53 113 2.6 4.3 0.00 0.00 0.00 85 1015.8
20260507065017 51 113 2.6 6.1 0.00 0.00 0.00 89 1015.9
20260507064017 49 90 1.7 3.5 0.00 0.00 0.00 92 1015.8
20260507063018 47 90 1.7 3.5 0.00 0.00 0.00 93 1015.8
20260507062016 46 68 1.7 4.3 0.00 0.00 0.00 92 1015.7
20260507061017 45 90 0.9 1.7 0.00 0.00 0.00 92 1015.7
20260507060018 44 0.0 0.0 0.00 0.00 0.00 92 1015.6
20260507055041 44 45 0.9 1.7 0.00 0.00 0.00 91 1015.6
20260507054016 43 0.0 0.0 0.00 0.00 0.00 91 1015.5
20260507053018 43 0.0 0.0 0.00 0.00 0.00 91 1015.5
20260507052016 43 0.0 0.0 0.00 0.00 0.00 91 1015.5
20260507051016 43 0.0 0.0 0.00 0.00 0.00 90 1015.4
20260507050018 42 45 0.9 2.6 0.00 0.00 0.00 90 1015.3
20260507045018 43 23 0.9 2.6 0.00 0.00 0.00 90 1015.3
20260507044016 43 45 0.9 1.7 0.00 0.00 0.00 90 1015.3
20260507043036 43 23 1.7 3.5 0.00 0.00 0.00 89 1015.3
20260507042016 43 45 1.7 3.5 0.00 0.00 0.00 89 1015.2
20260507041016 43 45 1.7 2.6 0.00 0.00 0.00 89 1015.2
20260507040016 43 45 1.7 3.5 0.00 0.00 0.00 89 1015.1
20260507035016 43 45 1.7 2.6 0.00 0.00 0.00 89 1015.2
20260507034036 43 45 1.7 2.6 0.00 0.00 0.00 89 1015.2
20260507033016 44 23 1.7 3.5 0.00 0.00 0.00 88 1015.1
20260507032016 44 45 1.7 2.6 0.00 0.00 0.00 88 1015.1
20260507031016 44 45 0.9 2.6 0.00 0.00 0.00 88 1015.1
20260507030038 44 23 0.9 2.6 0.00 0.00 0.00 88 1015.1
20260507025016 44 45 1.7 2.6 0.00 0.00 0.00 88 1015.0
20260507024016 45 45 1.7 3.5 0.00 0.00 0.00 88 1015.0
20260507023018 45 23 0.9 2.6 0.00 0.00 0.00 88 1014.9
20260507022016 45 0.0 1.7 0.00 0.00 0.00 88 1014.9
20260507021038 45 23 0.9 2.6 0.00 0.00 0.00 88 1014.9
20260507020016 45 0.0 0.0 0.00 0.00 0.00 87 1014.8
20260507015016 45 0.0 0.0 0.00 0.00 0.00 87 1014.7
20260507014036 45 0.0 0.0 0.00 0.00 0.00 86 1014.8
20260507013016 45 0.0 0.0 0.00 0.00 0.00 86 1014.8
20260507012018 46 0.0 0.0 0.00 0.00 0.00 86 1014.8
20260507010018 46 0.0 0.0 0.00 0.00 0.00 86 1014.8
20260507005021 46 0.0 0.0 0.00 0.00 0.00 85 1014.9
20260507004016 46 0.0 0.0 0.00 0.00 0.00 84 1014.8
20260507003016 47 0.0 0.0 0.00 0.00 0.00 83 1014.8
20260507002057 47 0.0 0.0 0.00 0.00 0.00 83 1014.8
20260507001017 47 0.0 0.0 0.00 0.00 0.00 82 1014.9
20260507000018 48 0.0 0.0 0.00 0.00 0.00 80 1015.0